Simultaneous Nadir Overpasses (SNOs) Predictions

Prediction of SNOs between LANDSAT-8 and METOP-B Satellite Orbit:

Table of predicted SNOs for the next 14.0 days since TLE Epoch: 3/16/2017
Index Date (LANDSAT-8) Time (LANDSAT-8) Lat,Lon (LANDSAT-8) SZA (LANDSAT-8 ) Date (METOP-B) Time (METOP-B) Lat,Lon (METOP-B) SZA (METOP-B ) Distance(km) Time Diff (sec)
1 03/18/2017 07:49:41 81.08, 101.41 83.66 03/18/2017 07:48:31 81.08, 101.48 83.64 1.24 70
2 03/18/2017 08:39:07 -81.10, -90.67 96.32 03/18/2017 08:39:10 -81.11, -90.57 96.30 1.82 3
3 03/21/2017 03:23:54 81.09, 167.94 82.58 03/21/2017 03:22:53 81.09, 167.96 82.56 0.42 61
4 03/21/2017 04:13:20 -81.11, -24.12 97.39 03/21/2017 04:13:32 -81.11, -24.06 97.38 1.12 12
5 03/23/2017 22:58:06 81.09,-125.57 81.50 03/23/2017 22:57:14 81.09,-125.57 81.48 0.21 52
6
